VTUVVTUK

Guest
Details From VTUV - Roi Et
To VTUK - Khon Kaen
Flight Number -
Tags generated
Created
Modified
Stats Distance 61 nm / 113 km
Max Altitude 0 ft / 0 m
Waypoints 3
Social Downloads 1
Likes 0
Share VATSIM

Download

Looking for another format? Having issues loading an existing format? Contact us
Advertisement - Login to hide

Notes

Basic altitude profile: - Ascent Rate: 2500ft/min - Ascent Speed: 250kts - Cruise Altitude: 35000ft - Cruise Speed: 420kts - Descent Rate: 1500ft/min - Descent Speed: 250kts

Route

VTUV ROT VTUK

ID Type Via Altitude Latitude Longitude Leg Dist Tot Dist Heading (true) Name
O VTUV APT - 0 ft / 0 m 16.11676˚ 103.77380˚ - 0 nm - Roi Et
ROT VOR - 0 ft / 0 m 16.11683˚ 103.77207˚ 0 nm 0 nm 272° / 272° ROI ET VOR-DME
O VTUK APT - 0 ft / 0 m 16.46663˚ 102.78366˚ 60 nm 60 nm 290° / 290° Khon Kaen

Altitude Profile

Advertisement - Login to hide

VTUV

Details ICAO VTUV (ROI)
Name Roi Et
Region Thailand
Timezone Asia/Bangkok (UTC+7.0)
Stats Elevation 451 ft / 137 m (AMSL)
Location 16.116760° 103.773798°
Runways 1
Magnetic Variation 0.841° W

METAR

Not found

TAF

TAF VTUV 221700Z 2218/2318 09003KT 8000 SCT025 BKN100 TEMPO 2308/2312 VRB10KT 5000 TSRA FEW018CB BKN020 OVC100

Decode

Departure Runways

ID Width Length Bearing (true) Bearing (mag) Surface Threshold Offset Overrun Length
18 148 ft / 45 m 6,939 ft / 2,115 m 182.45° 183.29° Asphalt 0 ft / 0 m 197 ft / 60 m
36 148 ft / 45 m 6,939 ft / 2,115 m 2.45° 3.29° Asphalt 0 ft / 0 m 197 ft / 60 m

VTUK

Details ICAO VTUK (KKC)
Name Khon Kaen
Region Thailand
Timezone Asia/Bangkok (UTC+7.0)
Stats Elevation 670 ft / 204 m (AMSL)
Location 16.466628° 102.783663°
Runways 1
Magnetic Variation 0.809° W

METAR

VTUK 222100Z VRB01KT 8000 FEW020 SCT100 24/24 Q1009 NOSIG

Decode

TAF

TAF VTUK 221700Z 2218/2318 14003KT 9999 SCT020 TEMPO 2306/2312 5000 TSRA FEW018CB

Decode

Destination Runways

ID Width Length Bearing (true) Bearing (mag) Surface Threshold Offset Overrun Length
03 148 ft / 45 m 10,043 ft / 3,061 m 32.69° 33.50° Asphalt 492 ft / 150 m 0 ft / 0 m
21 148 ft / 45 m 10,043 ft / 3,061 m 212.70° 213.51° Asphalt 492 ft / 150 m 0 ft / 0 m

Popular Alternatives